Weather in Nizhnenikolskiy

Russia / Astrakhan Oblast     45°55′08″N   47°59′22″E
temp.,
°C
wind,
m/s
gust,
m/s
humid.,
%
clouds,
%
prec.,
mm/h
press.,
hPa
HPBL,
m
5 december, sun
sun501:00+6se5119033 0.0 1016259
04:00+7se61393100 0.0 1015380
07:00+7se51090100 0.0 1014363
10:00+9se51086100 0.0 1014551
13:00+10sse4881100 0.0 1014484
16:00+9se4884100 0.0 1014406
19:00+7sse379466 0.0 1015160
22:00+6s379387 0.0 1016125
6 december, mon
mon601:00+6ssw3693100 0.0 1016117
04:00+6sw34936 0.0 101767
07:00+6wsw33948 0.0 101841
10:00+7w368094 0.0 1019200
13:00+10w456911 0.0 1020450
16:00+10wnw366663 0.0 1021562
19:00+7w338033 0.0 102239
22:00+6w33865 0.0 102328
7 december, tue
tue701:00+5nw228831 0.0 102410
04:00+5n118816 0.0 102410
07:00+5ene118843 0.0 102510
10:00+6e23825 0.0 102688
13:00+11ese44655 0.0 1026417
16:00+9ese57717 0.0 1025330
19:00+6ese5118620 0.0 1025244
22:00+6ese614856 0.0 1024308
8 december, wed
wed801:00+6ese716815 0.0 1023352
04:00+7ese8187348 0.0 1021404
07:00+7ese919686 0.0 1020462
10:00+9ese1021585 0.0 1020613
13:00+11ese1120494 0.0 1018699
16:00+9ese1020545 0.0 1017685
19:00+8ese102153100 0.0 1016637
22:00+8ese10205418 0.0 1015648
9 december, thu
thu901:00+7ese9186013 0.0 1015617
04:00+6ese715675 0.0 1014483
07:00+5ese61373100 0.0 1014344
10:00+6ese61169100 0.0 1014407
13:00+8e5659100 0.0 1014426
16:00+8ne3562100 0.0 1014233
19:00+7n3466100 0.1 1015220
22:00+7nw4766100 0.1 1015302